Location: Hilton Head Island
(32.2163°N, 80.7526°W)
Time: 03:17:55
(UTC-04:00)

Transit 2A Rocket - Pass Details

Date: 08 February 2026
Orbit: 583 x 900 km, 66.7° (Epoch: 11 March)

Event Time Altitude Azimuth Distance (km) Brightness Sun altitude
Rises 19:26:41 0° 244° (WSW) 3,445 9.7 -18.1°
Reaches altitude 10° 19:29:48 10° 260° (W) 2,541 9.0 -18.8°
Maximum altitude 19:34:09 21° 307° (NW) 1,917 7.6 -19.7°
Drops below altitude 10° 19:38:33 10° 355° (N) 2,576 7.7 -20.6°
Sets 19:41:45 0° 11° (N) 3,507 8.3 -21.3°
